,,,PA_Meas_PMT16A,,PR_Meas_QMR101_102,,RH_Meas_QMH101,,SR_Meas_QMS101,,TA_Meas_QMH101,,GenWind,,GenWind,
date,time,status,PA,status,PR,status,RH,status,SR,status,TA,status,DirAvg,status,SpdAvg,
2011-09-11, 00:00:04,VALID,1001.08,VALID,0,VALID,91.3494,VALID,0,VALID,23.0786,VALID,23,VALID,0.685156,
2011-09-11, 00:01:04,VALID,1001.08,VALID,0,VALID,90.8993,VALID,0,VALID,22.9988,VALID,23,VALID,0,
2011-09-11, 00:02:04,VALID,1001.05,VALID,0,VALID,90.5102,VALID,0,VALID,22.9598,VALID,23,VALID,0.367188,
2011-09-11, 00:03:04,VALID,1001.03,VALID,0,VALID,90.4644,VALID,0,VALID,22.9208,VALID,23,VALID,0.271094,
2011-09-11, 00:04:04,VALID,1001.02,VALID,0,VALID,90.5178,VALID,0,VALID,22.9013,VALID,23,VALID,0,
2011-09-11, 00:05:04,VALID,1000.97,VALID,0,VALID,90.617,VALID,0,VALID,22.8623,VALID,23,VALID,0.640234,
2011-09-11, 00:06:04,VALID,1000.98,VALID,0,VALID,90.8077,VALID,0,VALID,22.8427,VALID,23,VALID,0.879297,
2011-09-11, 00:07:04,VALID,1000.95,VALID,0,VALID,90.8306,VALID,0,VALID,22.8037,VALID,23,VALID,0.841016,
2011-09-11, 00:08:04,VALID,1000.97,VALID,0,VALID,91.1129,VALID,0,VALID,22.8037,VALID,23,VALID,0.804297,
2011-09-11, 00:09:04,VALID,1000.95,VALID,0,VALID,91.3189,VALID,0,VALID,22.786,VALID,23,VALID,0.541406,
2011-09-11, 00:10:04,VALID,1000.97,VALID,0,VALID,91.5097,VALID,0,VALID,22.7842,VALID,23,VALID,0.573047,
2011-09-11, 00:11:04,VALID,1000.96,VALID,0,VALID,91.6775,VALID,0,VALID,22.786,VALID,23,VALID,0.511328,
2011-09-11, 00:12:04,VALID,1000.94,VALID,0,VALID,91.7767,VALID,0,VALID,22.786,VALID,23,VALID,0.521484,
2011-09-11, 00:13:04,VALID,1000.97,VALID,0,VALID,91.8606,VALID,0,VALID,22.825,VALID,23,VALID,0.484766,
2011-09-11, 00:14:04,VALID,1000.95,VALID,0,VALID,91.8988,VALID,0,VALID,22.8232,VALID,23,VALID,0.167187,
2011-09-11, 00:15:04,VALID,1000.95,VALID,0,VALID,91.9293,VALID,0,VALID,22.8055,VALID,23,VALID,0,
2011-09-11, 00:16:04,VALID,1000.92,VALID,0,VALID,91.9293,VALID,0,VALID,22.8037,VALID,23,VALID,0,
2011-09-11, 00:17:04,VALID,1000.91,VALID,0,VALID,91.8835,VALID,0,VALID,22.786,VALID,23,VALID,0.280078,
2011-09-11, 00:18:04,VALID,1000.93,VALID,0,VALID,91.914,VALID,0,VALID,22.7664,VALID,23,VALID,0.525781,
2011-09-11, 00:19:04,VALID,1000.89,VALID,0,VALID,91.9827,VALID,0,VALID,22.7257,VALID,23,VALID,0.807422,
2011-09-11, 00:20:04,VALID,1000.88,VALID,0,VALID,92.0514,VALID,0,VALID,22.7647,VALID,23,VALID,0.518359,
2011-09-11, 00:21:04,VALID,1000.89,VALID,0,VALID,92.0437,VALID,0,VALID,22.7062,VALID,23,VALID,0.0101562,
2011-09-11, 00:22:04,VALID,1000.87,VALID,0,VALID,91.9674,VALID,0,VALID,22.6884,VALID,23,VALID,0,
2011-09-11, 00:23:04,VALID,1000.88,VALID,0,VALID,91.9369,VALID,0,VALID,22.6672,VALID,23,VALID,0,
2011-09-11, 00:24:04,VALID,1000.85,VALID,0,VALID,91.9827,VALID,0,VALID,22.6672,VALID,23,VALID,0,
2011-09-11, 00:25:04,VALID,1000.82,VALID,0,VALID,92.0056,VALID,0.112286,VALID,22.6672,VALID,23,VALID,0,
2011-09-11, 00:26:04,VALID,1000.84,VALID,0,VALID,92.0132,VALID,0,VALID,22.6867,VALID,41,VALID,1.05352,
2011-09-11, 00:27:04,VALID,1000.8,VALID,0,VALID,91.8988,VALID,0,VALID,22.6672,VALID,44,VALID,0.788281,
2011-09-11, 00:28:04,VALID,1000.82,VALID,0,VALID,91.7385,VALID,0,VALID,22.6477,VALID,44,VALID,0.594141,
2011-09-11, 00:29:04,VALID,1000.77,VALID,0,VALID,91.6241,VALID,0,VALID,22.6477,VALID,44,VALID,0.601953,
2011-09-11, 00:30:04,VALID,1000.75,VALID,0,VALID,91.4944,VALID,0,VALID,22.6282,VALID,43,VALID,0.682031,
2011-09-11, 00:31:04,VALID,1000.75,VALID,0,VALID,91.3876,VALID,0,VALID,22.5892,VALID,44,VALID,0.675,
2011-09-11, 00:32:04,VALID,1000.74,VALID,0,VALID,91.3037,VALID,0,VALID,22.5501,VALID,44,VALID,0.779688,
2011-09-11, 00:33:04,VALID,1000.7,VALID,0,VALID,91.3342,VALID,0,VALID,22.5111,VALID,44,VALID,0.761328,
2011-09-11, 00:34:04,VALID,1000.68,VALID,0,VALID,91.4486,VALID,0,VALID,22.4916,VALID,47,VALID,1.12969,
2011-09-11, 00:35:04,VALID,1000.68,VALID,0,VALID,91.5631,VALID,0,VALID,22.4916,VALID,61,VALID,1.36406,
2011-09-11, 00:36:04,VALID,1000.68,VALID,0,VALID,91.6546,VALID,0,VALID,22.4916,VALID,77,VALID,1.59375,
2011-09-11, 00:37:04,VALID,1000.66,VALID,0,VALID,91.6851,VALID,0,VALID,22.4933,VALID,79,VALID,1.55313,
2011-09-11, 00:38:04,VALID,1000.7,VALID,0,VALID,91.7614,VALID,0,VALID,22.4933,VALID,79,VALID,1.19414,
2011-09-11, 00:39:04,VALID,1000.7,VALID,0,VALID,91.7843,VALID,0,VALID,22.4738,VALID,79,VALID,0.923047,
2011-09-11, 00:40:04,VALID,1000.69,VALID,0,VALID,91.8301,VALID,0,VALID,22.4543,VALID,79,VALID,0.876172,
2011-09-11, 00:41:04,VALID,1000.69,VALID,0,VALID,91.8606,VALID,0,VALID,22.4543,VALID,79,VALID,0.673437,
2011-09-11, 00:42:04,VALID,1000.63,VALID,0,VALID,91.9369,VALID,0,VALID,22.4348,VALID,79,VALID,0.557422,
2011-09-11, 00:43:04,VALID,1000.63,VALID,0,VALID,92.0285,VALID,0,VALID,22.4348,VALID,351,VALID,1.06367,
2011-09-11, 00:44:04,VALID,1000.63,VALID,0,VALID,92.1506,VALID,0,VALID,22.4543,VALID,351,VALID,0.985937,
2011-09-11, 00:45:04,VALID,1000.66,VALID,0,VALID,92.2497,VALID,0,VALID,22.4348,VALID,351,VALID,0.564453,
2011-09-11, 00:46:04,VALID,1000.64,VALID,0,VALID,92.265,VALID,0,VALID,22.3941,VALID,351,VALID,0,
2011-09-11, 00:47:04,VALID,1000.6,VALID,0,VALID,92.3184,VALID,0,VALID,22.4526,VALID,351,VALID,0.902344,
2011-09-11, 00:48:04,VALID,1000.6,VALID,0,VALID,92.3871,VALID,0,VALID,22.4738,VALID,351,VALID,0.675391,
2011-09-11, 00:49:04,VALID,1000.6,VALID,0,VALID,92.4481,VALID,0,VALID,22.4738,VALID,351,VALID,0.0527344,
2011-09-11, 00:50:04,VALID,1000.58,VALID,0,VALID,92.471,VALID,0,VALID,22.4721,VALID,351,VALID,0,
2011-09-11, 00:51:04,VALID,1000.54,VALID,0,VALID,92.5549,VALID,0,VALID,22.5128,VALID,351,VALID,0.171484,
2011-09-11, 00:52:04,VALID,1000.54,VALID,0,VALID,92.5931,VALID,0,VALID,22.4721,VALID,353,VALID,1.01563,
2011-09-11, 00:53:04,VALID,1000.48,VALID,0,VALID,92.5854,VALID,0,VALID,22.4721,VALID,5,VALID,1.03008,
2011-09-11, 00:54:04,VALID,1000.53,VALID,0,VALID,92.5626,VALID,0,VALID,22.4933,VALID,5,VALID,1.07383,
2011-09-11, 00:55:04,VALID,1000.52,VALID,0,VALID,92.5244,VALID,0,VALID,22.4738,VALID,5,VALID,0.604688,
2011-09-11, 00:56:04,VALID,1000.51,VALID,0,VALID,92.4252,VALID,0,VALID,22.3941,VALID,11,VALID,1.08125,
2011-09-11, 00:57:04,VALID,1000.47,VALID,0,VALID,92.3184,VALID,0,VALID,22.3551,VALID,24,VALID,1.46992,
2011-09-11, 00:58:04,VALID,1000.51,VALID,0,VALID,92.2345,VALID,0,VALID,22.3568,VALID,24,VALID,1.37695,
2011-09-11, 00:59:04,VALID,1000.51,VALID,0,VALID,92.1506,VALID,0,VALID,22.2983,VALID,38,VALID,0.924219,
2011-09-11, 01:00:04,VALID,1000.56,VALID,0,VALID,92.1124,VALID,0,VALID,22.3178,VALID,54,VALID,0.933984,
2011-09-11, 01:01:04,VALID,1000.54,VALID,0,VALID,92.1429,VALID,0,VALID,22.2966,VALID,54,VALID,0.923437,
2011-09-11, 01:02:04,VALID,1000.56,VALID,0,VALID,92.1734,VALID,0,VALID,22.3178,VALID,54,VALID,0.929688,
2011-09-11, 01:03:04,VALID,1000.54,VALID,0,VALID,92.1887,VALID,0,VALID,22.3373,VALID,54,VALID,1.03555,
2011-09-11, 01:04:04,VALID,1000.53,VALID,0,VALID,92.1811,VALID,0,VALID,22.3161,VALID,50,VALID,1.25625,
2011-09-11, 01:05:04,VALID,1000.53,VALID,0,VALID,92.1734,VALID,0,VALID,22.3161,VALID,40,VALID,1.38672,
2011-09-11, 01:06:04,VALID,1000.57,VALID,0,VALID,92.1277,VALID,0,VALID,22.3356,VALID,40,VALID,0.850391,
2011-09-11, 01:07:04,VALID,1000.61,VALID,0,VALID,92.0895,VALID,0,VALID,22.3373,VALID,40,VALID,0.545313,
2011-09-11, 01:08:04,VALID,1000.62,VALID,0,VALID,92.059,VALID,0,VALID,22.3178,VALID,40,VALID,0.595312,
2011-09-11, 01:09:04,VALID,1000.61,VALID,0,VALID,92.0895,VALID,0,VALID,22.3178,VALID,40,VALID,0.408203,
2011-09-11, 01:10:04,VALID,1000.62,VALID,0,VALID,92.1353,VALID,0,VALID,22.2966,VALID,40,VALID,0.384375,
2011-09-11, 01:11:04,VALID,1000.58,VALID,0,VALID,92.1506,VALID,0,VALID,22.3373,VALID,40,VALID,0.205469,
2011-09-11, 01:12:04,VALID,1000.63,VALID,0,VALID,92.1658,VALID,0,VALID,22.2771,VALID,40,VALID,0,
2011-09-11, 01:13:04,VALID,1000.61,VALID,0,VALID,92.1506,VALID,0,VALID,22.2771,VALID,40,VALID,0,
2011-09-11, 01:14:04,VALID,1000.6,VALID,0,VALID,92.1124,VALID,0,VALID,22.2381,VALID,40,VALID,0,
2011-09-11, 01:15:04,VALID,1000.58,VALID,0,VALID,92.1353,VALID,0,VALID,22.2397,VALID,40,VALID,0,
2011-09-11, 01:16:04,VALID,1000.58,VALID,0,VALID,92.1506,VALID,0,VALID,22.2397,VALID,40,VALID,0,
2011-09-11, 01:17:04,VALID,1000.58,VALID,0,VALID,92.1963,VALID,0,VALID,22.2576,VALID,40,VALID,0,
2011-09-11, 01:18:04,VALID,1000.52,VALID,0,VALID,92.2955,VALID,0,VALID,22.3161,VALID,40,VALID,0,
2011-09-11, 01:19:04,VALID,1000.52,VALID,0,VALID,92.3718,VALID,0,VALID,22.3746,VALID,40,VALID,0,
2011-09-11, 01:20:04,VALID,1000.52,VALID,0,VALID,92.4252,VALID,0,VALID,22.3941,VALID,40,VALID,0,
2011-09-11, 01:21:04,VALID,1000.53,VALID,0,VALID,92.4405,VALID,0,VALID,22.4136,VALID,40,VALID,0,
2011-09-11, 01:22:04,VALID,1000.53,VALID,0,VALID,92.4328,VALID,0,VALID,22.4738,VALID,40,VALID,0.693359,
2011-09-11, 01:23:04,VALID,1000.52,VALID,0,VALID,92.4405,VALID,0,VALID,22.5111,VALID,40,VALID,0.766406,
2011-09-11, 01:24:04,VALID,1000.49,VALID,0,VALID,92.3718,VALID,0,VALID,22.5306,VALID,147,VALID,0.972656,
2011-09-11, 01:25:04,VALID,1000.47,VALID,0,VALID,92.2574,VALID,0,VALID,22.5874,VALID,155,VALID,1.27461,
2011-09-11, 01:26:04,VALID,1000.49,VALID,0,VALID,92.0437,VALID,0.112286,VALID,22.6867,VALID,145,VALID,1.04492,
2011-09-11, 01:27:04,VALID,1000.47,VALID,0,VALID,91.6699,VALID,0.112286,VALID,22.7257,VALID,140,VALID,1.325,
2011-09-11, 01:28:04,VALID,1000.48,VALID,0,VALID,91.296,VALID,0.112286,VALID,22.7257,VALID,140,VALID,1.24727,
2011-09-11, 01:29:04,VALID,1000.48,VALID,0,VALID,91.0519,VALID,0,VALID,22.7257,VALID,140,VALID,1.14609,
2011-09-11, 01:30:04,VALID,1000.44,VALID,0,VALID,90.8383,VALID,0,VALID,22.6867,VALID,140,VALID,1.10781,
2011-09-11, 01:31:04,VALID,1000.42,VALID,0,VALID,90.7772,VALID,0,VALID,22.646,VALID,140,VALID,1.12852,
2011-09-11, 01:32:04,VALID,1000.43,VALID,0,VALID,90.8535,VALID,0,VALID,22.6477,VALID,121,VALID,1.11172,
2011-09-11, 01:33:04,VALID,1000.39,VALID,0,VALID,91.0061,VALID,0,VALID,22.6282,VALID,121,VALID,1.30195,
2011-09-11, 01:34:04,VALID,1000.37,VALID,0,VALID,91.1129,VALID,0.112286,VALID,22.6069,VALID,121,VALID,1.19375,
2011-09-11, 01:35:04,VALID,1000.38,VALID,0,VALID,91.1053,VALID,0,VALID,22.6282,VALID,121,VALID,0.908984,
2011-09-11, 01:36:04,VALID,1000.37,VALID,0,VALID,91.1129,VALID,0,VALID,22.6477,VALID,105,VALID,1.16172,
2011-09-11, 01:37:04,VALID,1000.34,VALID,0,VALID,91.0824,VALID,0,VALID,22.6672,VALID,105,VALID,1.26953,
2011-09-11, 01:38:04,VALID,1000.36,VALID,0,VALID,91.1358,VALID,0.112286,VALID,22.6672,VALID,105,VALID,1.17969,
2011-09-11, 01:39:04,VALID,1000.37,VALID,0,VALID,91.1358,VALID,0,VALID,22.6689,VALID,105,VALID,1.01211,
2011-09-11, 01:40:04,VALID,1000.29,VALID,0,VALID,91.1282,VALID,0,VALID,22.6689,VALID,105,VALID,0.942187,
2011-09-11, 01:41:04,VALID,1000.28,VALID,0,VALID,91.0061,VALID,0,VALID,22.6689,VALID,104,VALID,0.799609,
2011-09-11, 01:42:04,VALID,1000.33,VALID,0,VALID,90.7925,VALID,0,VALID,22.6494,VALID,105,VALID,0.597656,
2011-09-11, 01:43:04,VALID,1000.29,VALID,0,VALID,90.6094,VALID,0,VALID,22.6299,VALID,105,VALID,0.399609,
2011-09-11, 01:44:04,VALID,1000.3,VALID,0,VALID,90.4644,VALID,0,VALID,22.6104,VALID,105,VALID,0.278125,
2011-09-11, 01:45:04,VALID,1000.28,VALID,0,VALID,90.4034,VALID,0,VALID,22.5909,VALID,105,VALID,0.339844,
2011-09-11, 01:46:04,VALID,1000.28,VALID,0,VALID,90.3576,VALID,0,VALID,22.5519,VALID,105,VALID,0.552734,
2011-09-11, 01:47:04,VALID,1000.29,VALID,0,VALID,90.3042,VALID,0,VALID,22.5128,VALID,105,VALID,0.803516,
2011-09-11, 01:48:04,VALID,1000.28,VALID,0,VALID,90.1592,VALID,0,VALID,22.4738,VALID,105,VALID,0.845703,
2011-09-11, 01:49:04,VALID,1000.28,VALID,0,VALID,90.2584,VALID,0,VALID,22.4153,VALID,105,VALID,0.408984,
2011-09-11, 01:50:04,VALID,1000.29,VALID,0,VALID,90.3652,VALID,0,VALID,22.3958,VALID,105,VALID,0.364844,
2011-09-11, 01:51:04,VALID,1000.27,VALID,0,VALID,90.4339,VALID,0,VALID,22.3373,VALID,105,VALID,0,
2011-09-11, 01:52:04,VALID,1000.31,VALID,0,VALID,90.6323,VALID,0,VALID,22.2983,VALID,105,VALID,0.507031,
2011-09-11, 01:53:04,VALID,1000.28,VALID,0,VALID,90.9985,VALID,0,VALID,22.2983,VALID,104,VALID,0.703516,
2011-09-11, 01:54:04,VALID,1000.28,VALID,0,VALID,91.2045,VALID,0,VALID,22.2754,VALID,104,VALID,0.480078,
2011-09-11, 01:55:04,VALID,1000.32,VALID,0,VALID,91.3189,VALID,0,VALID,22.2381,VALID,105,VALID,0.214062,
2011-09-11, 01:56:04,VALID,1000.35,VALID,0,VALID,91.3571,VALID,0,VALID,22.2186,VALID,105,VALID,0,
2011-09-11, 01:57:04,VALID,1000.31,VALID,0,VALID,91.4868,VALID,0,VALID,22.199,VALID,105,VALID,0.0492188,
2011-09-11, 01:58:05,VALID,1000.31,VALID,0,VALID,91.6165,VALID,0.112286,VALID,22.2186,VALID,105,VALID,0.24375,
2011-09-11, 01:59:05,VALID,1000.29,VALID,0,VALID,91.7385,VALID,0,VALID,22.2186,VALID,105,VALID,0.325781,
2011-09-11, 02:00:05,VALID,1000.27,VALID,0,VALID,91.8148,VALID,0,VALID,22.199,VALID,105,VALID,0.279687,
2011-09-11, 02:01:05,VALID,1000.28,VALID,0,VALID,91.8911,VALID,0,VALID,22.1795,VALID,105,VALID,0.394922,
2011-09-11, 02:02:05,VALID,1000.22,VALID,0,VALID,91.9827,VALID,0,VALID,22.199,VALID,105,VALID,0.477734,
2011-09-11, 02:03:05,VALID,1000.26,VALID,0,VALID,92.0819,VALID,0,VALID,22.2186,VALID,105,VALID,0.594141,
2011-09-11, 02:04:05,VALID,1000.27,VALID,0,VALID,92.1887,VALID,0,VALID,22.2169,VALID,105,VALID,0.455469,
2011-09-11, 02:05:05,VALID,1000.23,VALID,0,VALID,92.2574,VALID,0.112286,VALID,22.2576,VALID,105,VALID,0.398047,
2011-09-11, 02:06:05,VALID,1000.22,VALID,0,VALID,92.2803,VALID,0,VALID,22.2771,VALID,105,VALID,0.776953,
2011-09-11, 02:07:05,VALID,1000.23,VALID,0,VALID,92.2955,VALID,0,VALID,22.2576,VALID,105,VALID,0.234375,
2011-09-11, 02:08:05,VALID,1000.22,VALID,0,VALID,92.2574,VALID,0,VALID,22.199,VALID,105,VALID,0.00234375,
2011-09-11, 02:09:05,VALID,1000.24,VALID,0,VALID,92.1887,VALID,0,VALID,22.1812,VALID,105,VALID,0.0382813,
2011-09-11, 02:10:05,VALID,1000.26,VALID,0,VALID,92.1658,VALID,0,VALID,22.121,VALID,105,VALID,0,
2011-09-11, 02:11:05,VALID,1000.24,VALID,0,VALID,92.1277,VALID,0,VALID,22.1422,VALID,105,VALID,0.0226563,
2011-09-11, 02:12:05,VALID,1000.23,VALID,0,VALID,92.1429,VALID,0,VALID,22.1227,VALID,105,VALID,0.233984,
2011-09-11, 02:13:05,VALID,1000.21,VALID,0,VALID,92.1734,VALID,0,VALID,22.1227,VALID,105,VALID,0.379687,
2011-09-11, 02:14:05,VALID,1000.25,VALID,0,VALID,92.1734,VALID,0,VALID,22.1422,VALID,105,VALID,0,
2011-09-11, 02:15:05,VALID,1000.25,VALID,0,VALID,92.12,VALID,0,VALID,22.1617,VALID,105,VALID,0.00117188,
2011-09-11, 02:16:05,VALID,1000.23,VALID,0,VALID,92.1277,VALID,0,VALID,22.2007,VALID,105,VALID,0.699609,
2011-09-11, 02:17:05,VALID,1000.23,VALID,0,VALID,92.12,VALID,0,VALID,22.2592,VALID,105,VALID,0.45,
2011-09-11, 02:18:05,VALID,1000.25,VALID,0,VALID,92.0437,VALID,0,VALID,22.3178,VALID,105,VALID,0.904297,
2011-09-11, 02:19:05,VALID,1000.24,VALID,0,VALID,91.914,VALID,0,VALID,22.3763,VALID,105,VALID,0.386719,
2011-09-11, 02:20:05,VALID,1000.24,VALID,0,VALID,91.6851,VALID,0,VALID,22.4153,VALID,105,VALID,0,
2011-09-11, 02:21:05,VALID,1000.26,VALID,0,VALID,91.4181,VALID,0,VALID,22.4348,VALID,105,VALID,0,
2011-09-11, 02:22:05,VALID,1000.22,VALID,0,VALID,91.1587,VALID,0,VALID,22.4153,VALID,105,VALID,0,
2011-09-11, 02:23:05,VALID,1000.23,VALID,0,VALID,90.9146,VALID,0,VALID,22.3763,VALID,105,VALID,0.727344,
2011-09-11, 02:24:05,VALID,1000.24,VALID,0,VALID,90.884,VALID,0,VALID,22.3373,VALID,18,VALID,1.32461,
2011-09-11, 02:25:05,VALID,1000.24,VALID,0,VALID,90.9451,VALID,0,VALID,22.2771,VALID,18,VALID,0.582031,
2011-09-11, 02:26:05,VALID,1000.24,VALID,0,VALID,91.0977,VALID,0,VALID,22.2381,VALID,18,VALID,0.520703,
2011-09-11, 02:27:05,VALID,1000.22,VALID,0,VALID,91.2731,VALID,0,VALID,22.2397,VALID,18,VALID,0.600391,
2011-09-11, 02:28:05,VALID,1000.19,VALID,0,VALID,91.4791,VALID,0,VALID,22.2397,VALID,18,VALID,0.326953,
2011-09-11, 02:29:05,VALID,1000.19,VALID,0,VALID,91.6546,VALID,0,VALID,22.2592,VALID,18,VALID,0.0679687,
2011-09-11, 02:30:05,VALID,1000.19,VALID,0,VALID,91.7691,VALID,0,VALID,22.2186,VALID,18,VALID,0,
2011-09-11, 02:31:05,VALID,1000.2,VALID,0,VALID,91.8835,VALID,0,VALID,22.2186,VALID,18,VALID,0,
2011-09-11, 02:32:05,VALID,1000.19,VALID,0,VALID,91.914,VALID,0,VALID,22.2007,VALID,18,VALID,0.355859,
2011-09-11, 02:33:05,VALID,1000.19,VALID,0,VALID,92.0209,VALID,0,VALID,22.2007,VALID,18,VALID,0.401172,
2011-09-11, 02:34:05,VALID,1000.15,VALID,0,VALID,92.0971,VALID,0,VALID,22.2007,VALID,18,VALID,0.541406,
2011-09-11, 02:35:05,VALID,1000.14,VALID,0,VALID,92.1734,VALID,0,VALID,22.2202,VALID,18,VALID,0.441797,
2011-09-11, 02:36:05,VALID,1000.15,VALID,0,VALID,92.1658,VALID,0,VALID,22.2007,VALID,18,VALID,0.369141,
2011-09-11, 02:37:05,VALID,1000.16,VALID,0,VALID,92.1353,VALID,0,VALID,22.16,VALID,18,VALID,0.367969,
2011-09-11, 02:38:05,VALID,1000.15,VALID,0,VALID,92.1734,VALID,0,VALID,22.1405,VALID,18,VALID,0.403125,
2011-09-11, 02:39:05,VALID,1000.14,VALID,0,VALID,92.1887,VALID,0,VALID,22.1812,VALID,18,VALID,0.444531,
2011-09-11, 02:40:05,VALID,1000.12,VALID,0,VALID,92.2345,VALID,0,VALID,22.1812,VALID,18,VALID,0.441016,
2011-09-11, 02:41:05,VALID,1000.1,VALID,0,VALID,92.2574,VALID,0,VALID,22.16,VALID,18,VALID,0.417578,
2011-09-11, 02:42:05,VALID,1000.14,VALID,0,VALID,92.265,VALID,0,VALID,22.1795,VALID,18,VALID,0.297266,
2011-09-11, 02:43:05,VALID,1000.13,VALID,0,VALID,92.2192,VALID,0,VALID,22.1812,VALID,18,VALID,0.271484,
2011-09-11, 02:44:05,VALID,1000.15,VALID,0,VALID,92.2116,VALID,0,VALID,22.16,VALID,18,VALID,0.0121094,
2011-09-11, 02:45:05,VALID,1000.16,VALID,0,VALID,92.1887,VALID,0,VALID,22.1795,VALID,18,VALID,0,
2011-09-11, 02:46:05,VALID,1000.15,VALID,0,VALID,92.12,VALID,0,VALID,22.16,VALID,18,VALID,0.00117188,
2011-09-11, 02:47:05,VALID,1000.17,VALID,0,VALID,92.0819,VALID,0,VALID,22.1405,VALID,18,VALID,0.594922,
2011-09-11, 02:48:05,VALID,1000.15,VALID,0,VALID,92.0437,VALID,0,VALID,22.121,VALID,18,VALID,0.441016,
2011-09-11, 02:49:05,VALID,1000.15,VALID,0,VALID,92.0971,VALID,0,VALID,22.121,VALID,18,VALID,0.569531,
2011-09-11, 02:50:05,VALID,1000.15,VALID,0,VALID,92.1658,VALID,0,VALID,22.1422,VALID,18,VALID,0.528125,
2011-09-11, 02:51:05,VALID,1000.12,VALID,0,VALID,92.2497,VALID,0,VALID,22.1422,VALID,18,VALID,0.441016,
2011-09-11, 02:52:05,VALID,1000.12,VALID,0,VALID,92.326,VALID,0,VALID,22.1422,VALID,18,VALID,0.430469,
2011-09-11, 02:53:05,VALID,1000.09,VALID,0,VALID,92.3718,VALID,0,VALID,22.121,VALID,18,VALID,0.611719,
2011-09-11, 02:54:05,VALID,1000.11,VALID,0,VALID,92.4252,VALID,0,VALID,22.1405,VALID,18,VALID,0.355078,
2011-09-11, 02:55:05,VALID,1000.07,VALID,0,VALID,92.4863,VALID,0,VALID,22.121,VALID,18,VALID,0.607422,
2011-09-11, 02:56:05,VALID,1000.06,VALID,0,VALID,92.532,VALID,0,VALID,22.1405,VALID,18,VALID,0.380469,
2011-09-11, 02:57:05,VALID,1000.06,VALID,0,VALID,92.5549,VALID,0,VALID,22.121,VALID,18,VALID,0,
2011-09-11, 02:58:05,VALID,1000.05,VALID,0,VALID,92.5931,VALID,0,VALID,22.121,VALID,18,VALID,0.0339844,
2011-09-11, 02:59:05,VALID,1000.04,VALID,0,VALID,92.616,VALID,0,VALID,22.1015,VALID,18,VALID,0,
2011-09-11, 03:00:05,VALID,1000.02,VALID,0,VALID,92.6312,VALID,0,VALID,22.082,VALID,18,VALID,0.707422,
2011-09-11, 03:01:05,VALID,1000.01,VALID,0,VALID,92.6541,VALID,0,VALID,22.1015,VALID,18,VALID,0.464844,
2011-09-11, 03:02:05,VALID,1000.01,VALID,0,VALID,92.6923,VALID,0,VALID,22.1032,VALID,18,VALID,0.422266,
2011-09-11, 03:03:05,VALID,1000.03,VALID,0,VALID,92.6617,VALID,0,VALID,22.043,VALID,18,VALID,0.589844,
2011-09-11, 03:04:05,VALID,1000.02,VALID,0,VALID,92.6465,VALID,0,VALID,22.0447,VALID,18,VALID,0.570703,
2011-09-11, 03:05:05,VALID,1000.03,VALID,0,VALID,92.6617,VALID,0,VALID,22.004,VALID,18,VALID,0.470313,
2011-09-11, 03:06:05,VALID,1000.02,VALID,0,VALID,92.6923,VALID,0,VALID,22.0057,VALID,18,VALID,0.298438,
2011-09-11, 03:07:05,VALID,1000.05,VALID,0,VALID,92.738,VALID,0,VALID,22.0057,VALID,18,VALID,0.0824219,
2011-09-11, 03:08:05,VALID,1000.03,VALID,0,VALID,92.7228,VALID,0,VALID,21.9862,VALID,18,VALID,0,
2011-09-11, 03:09:05,VALID,999.996,VALID,0,VALID,92.7685,VALID,0,VALID,21.965,VALID,18,VALID,0,
2011-09-11, 03:10:05,VALID,999.988,VALID,0,VALID,92.7762,VALID,0,VALID,21.9667,VALID,18,VALID,0,
2011-09-11, 03:11:05,VALID,999.961,VALID,0,VALID,92.7838,VALID,0,VALID,21.9667,VALID,18,VALID,0,
2011-09-11, 03:12:05,VALID,999.975,VALID,0,VALID,92.7914,VALID,0,VALID,21.926,VALID,18,VALID,0,
2011-09-11, 03:13:05,VALID,1000,VALID,0,VALID,92.8372,VALID,0,VALID,21.926,VALID,18,VALID,0,
2011-09-11, 03:14:05,VALID,999.986,VALID,0,VALID,92.8601,VALID,0,VALID,21.926,VALID,18,VALID,0.0363281,
2011-09-11, 03:15:05,VALID,1000.01,VALID,0,VALID,92.8372,VALID,0,VALID,21.926,VALID,18,VALID,0.858984,
2011-09-11, 03:16:05,VALID,1000.01,VALID,0,VALID,92.8296,VALID,0,VALID,21.9065,VALID,19,VALID,1.09492,
2011-09-11, 03:17:05,VALID,999.997,VALID,0,VALID,92.7685,VALID,0,VALID,21.9472,VALID,21,VALID,1.025,
2011-09-11, 03:18:05,VALID,1000.01,VALID,0,VALID,92.6923,VALID,0,VALID,21.9455,VALID,21,VALID,0.9,
2011-09-11, 03:19:05,VALID,1000.04,VALID,0,VALID,92.5473,VALID,0,VALID,21.926,VALID,21,VALID,0.764844,
2011-09-11, 03:20:05,VALID,1000.02,VALID,0,VALID,92.3947,VALID,0,VALID,21.887,VALID,21,VALID,0.459375,
2011-09-11, 03:21:05,VALID,1000.04,VALID,0,VALID,92.2116,VALID,0,VALID,21.8692,VALID,21,VALID,0.451953,
2011-09-11, 03:22:05,VALID,1000.04,VALID,0,VALID,92.0285,VALID,0,VALID,21.809,VALID,21,VALID,0.323438,
2011-09-11, 03:23:05,VALID,1000.05,VALID,0,VALID,91.8759,VALID,0,VALID,21.7505,VALID,21,VALID,0.0398437,
2011-09-11, 03:24:05,VALID,1000.09,VALID,0,VALID,91.7614,VALID,0,VALID,21.692,VALID,21,VALID,0,
2011-09-11, 03:25:05,VALID,1000.12,VALID,0,VALID,91.7309,VALID,0,VALID,21.6725,VALID,21,VALID,0,
2011-09-11, 03:26:05,VALID,1000.1,VALID,0,VALID,91.8377,VALID,0,VALID,21.7131,VALID,21,VALID,0,
2011-09-11, 03:27:05,VALID,1000.1,VALID,0,VALID,91.9903,VALID,0,VALID,21.7115,VALID,21,VALID,0,
2011-09-11, 03:28:05,VALID,1000.09,VALID,0,VALID,92.1506,VALID,0,VALID,21.7521,VALID,21,VALID,0.278125,
2011-09-11, 03:29:05,VALID,1000.1,VALID,0,VALID,92.2879,VALID,0,VALID,21.7505,VALID,21,VALID,0.224609,
2011-09-11, 03:30:05,VALID,1000.07,VALID,0,VALID,92.3642,VALID,0,VALID,21.77,VALID,21,VALID,0.241797,
2011-09-11, 03:31:05,VALID,1000.06,VALID,0,VALID,92.4023,VALID,0,VALID,21.77,VALID,21,VALID,0,
2011-09-11, 03:32:05,VALID,1000.07,VALID,0,VALID,92.4405,VALID,0,VALID,21.7716,VALID,21,VALID,0,
2011-09-11, 03:33:05,VALID,1000.08,VALID,0,VALID,92.471,VALID,0,VALID,21.7716,VALID,21,VALID,0,
2011-09-11, 03:34:05,VALID,1000.1,VALID,0,VALID,92.471,VALID,0,VALID,21.7521,VALID,21,VALID,0,
2011-09-11, 03:35:05,VALID,1000.08,VALID,0,VALID,92.4786,VALID,0,VALID,21.7326,VALID,21,VALID,0,
2011-09-11, 03:36:05,VALID,1000.08,VALID,0,VALID,92.4939,VALID,0,VALID,21.7326,VALID,21,VALID,0,
2011-09-11, 03:37:05,VALID,1000.07,VALID,0,VALID,92.4863,VALID,0,VALID,21.7131,VALID,21,VALID,0,
2011-09-11, 03:38:05,VALID,1000.06,VALID,0,VALID,92.5015,VALID,0,VALID,21.6936,VALID,21,VALID,0,
2011-09-11, 03:39:05,VALID,1000.06,VALID,0,VALID,92.5473,VALID,0,VALID,21.7115,VALID,21,VALID,0,
2011-09-11, 03:40:05,VALID,1000.06,VALID,0,VALID,92.616,VALID,0,VALID,21.7521,VALID,21,VALID,0,
2011-09-11, 03:41:05,VALID,1000.04,VALID,0,VALID,92.6465,VALID,0,VALID,21.7505,VALID,21,VALID,0,
2011-09-11, 03:42:05,VALID,1000.02,VALID,0,VALID,92.6694,VALID,0,VALID,21.77,VALID,21,VALID,0,
2011-09-11, 03:43:05,VALID,1000.05,VALID,0,VALID,92.6236,VALID,0,VALID,21.7505,VALID,21,VALID,0,
2011-09-11, 03:44:05,VALID,1000.06,VALID,0,VALID,92.6236,VALID,0,VALID,21.7911,VALID,21,VALID,0.673437,
2011-09-11, 03:45:05,VALID,1000.03,VALID,0,VALID,92.6846,VALID,0,VALID,21.8285,VALID,21,VALID,0.896875,
2011-09-11, 03:46:05,VALID,1000.05,VALID,0,VALID,92.7304,VALID,0,VALID,21.9277,VALID,60,VALID,0.907422,
2011-09-11, 03:47:05,VALID,1000.07,VALID,0,VALID,92.7304,VALID,0,VALID,21.9455,VALID,60,VALID,0.74375,
2011-09-11, 03:48:05,VALID,1000.03,VALID,0,VALID,92.6999,VALID,0,VALID,22.0057,VALID,60,VALID,0.654297,
2011-09-11, 03:49:05,VALID,1000.08,VALID,0,VALID,92.6388,VALID,0,VALID,21.9862,VALID,60,VALID,0.679688,